Time,TemperatureF,DewpointF,PressureIn,WindDirection,WindDirectionDegrees,WindSpeedMPH,WindSpeedGustMPH,Humidity,HourlyPrecipIn,Conditions,Clouds,dailyrainin,SoftwareType,DateUTC
2013-02-03 00:03:00,44.0,33.0,30.00,North,0,0.0,4.0,64,0.00,,,0.00,,2013-02-03 05:03:00,
2013-02-03 00:12:00,44.0,33.0,30.00,North,0,0.0,4.0,64,0.00,,,0.00,,2013-02-03 05:12:00,
2013-02-03 00:22:00,44.0,33.0,30.00,WSW,253,2.0,6.0,64,0.00,,,0.00,,2013-02-03 05:22:00,
2013-02-03 00:32:00,43.0,32.0,29.99,North,0,0.0,6.0,66,0.00,,,0.00,,2013-02-03 05:32:00,
2013-02-03 00:42:00,43.0,32.0,29.99,North,0,0.0,6.0,66,0.00,,,0.00,,2013-02-03 05:42:00,
2013-02-03 00:52:00,43.0,32.0,29.99,North,0,0.0,6.0,66,0.00,,,0.00,,2013-02-03 05:52:00,
2013-02-03 01:02:00,42.0,34.0,29.98,North,0,0.0,5.0,73,0.00,,,0.00,,2013-02-03 06:02:00,
2013-02-03 01:11:00,42.0,34.0,29.98,North,0,0.0,5.0,73,0.00,,,0.00,,2013-02-03 06:11:00,
2013-02-03 01:21:00,42.0,35.0,29.97,North,0,0.0,6.0,75,0.00,,,0.00,,2013-02-03 06:21:00,
2013-02-03 01:32:00,41.0,34.0,29.96,North,0,0.0,4.0,77,0.00,,,0.00,,2013-02-03 06:32:00,
2013-02-03 01:42:00,41.0,34.0,29.96,North,0,0.0,4.0,77,0.00,,,0.00,,2013-02-03 06:42:00,
2013-02-03 01:52:00,41.0,34.0,29.96,North,0,0.0,4.0,77,0.00,,,0.00,,2013-02-03 06:52:00,
2013-02-03 02:02:00,41.0,35.0,29.95,North,0,0.0,8.0,79,0.00,,,0.00,,2013-02-03 07:02:00,
2013-02-03 02:11:00,41.0,35.0,29.95,North,0,0.0,8.0,79,0.00,,,0.00,,2013-02-03 07:11:00,
2013-02-03 02:21:00,41.0,35.0,29.94,North,0,0.0,5.0,80,0.00,,,0.00,,2013-02-03 07:21:00,
2013-02-03 02:32:00,40.0,34.0,29.94,North,0,0.0,3.0,80,0.00,,,0.00,,2013-02-03 07:32:00,
2013-02-03 02:42:00,40.0,34.0,29.94,North,0,0.0,3.0,80,0.00,,,0.00,,2013-02-03 07:42:00,
2013-02-03 02:52:00,40.0,35.0,29.94,North,0,0.0,0.0,82,0.00,,,0.00,,2013-02-03 07:52:00,
2013-02-03 03:02:00,39.0,34.0,29.94,North,0,0.0,0.0,83,0.00,,,0.00,,2013-02-03 08:02:00,
2013-02-03 03:11:00,39.0,34.0,29.94,North,0,0.0,0.0,83,0.00,,,0.00,,2013-02-03 08:11:00,
2013-02-03 03:22:00,39.0,34.0,29.94,North,0,0.0,0.0,83,0.00,,,0.00,,2013-02-03 08:22:00,
2013-02-03 03:32:00,37.0,34.0,29.93,North,0,0.0,0.0,87,0.00,,,0.00,,2013-02-03 08:32:00,
2013-02-03 03:41:00,37.0,34.0,29.93,North,0,0.0,0.0,87,0.00,,,0.00,,2013-02-03 08:41:00,
2013-02-03 03:52:00,37.0,34.0,29.93,North,0,0.0,0.0,87,0.00,,,0.00,,2013-02-03 08:52:00,
2013-02-03 04:03:00,36.0,33.0,29.92,North,0,0.0,0.0,88,0.00,,,0.00,,2013-02-03 09:03:00,
2013-02-03 04:11:00,36.0,33.0,29.92,North,0,0.0,0.0,88,0.00,,,0.00,,2013-02-03 09:11:00,
2013-02-03 04:22:00,36.0,33.0,29.92,North,0,0.0,0.0,88,0.00,,,0.00,,2013-02-03 09:22:00,
2013-02-03 04:32:00,34.0,31.0,29.91,North,0,0.0,0.0,89,0.00,,,0.00,,2013-02-03 09:32:00,
2013-02-03 04:42:00,34.0,31.0,29.91,North,0,0.0,0.0,89,0.00,,,0.00,,2013-02-03 09:42:00,
2013-02-03 04:52:00,33.0,30.0,29.91,North,0,0.0,0.0,90,0.00,,,0.00,,2013-02-03 09:52:00,
2013-02-03 05:01:00,33.0,31.0,29.91,North,0,0.0,0.0,91,0.00,,,0.00,,2013-02-03 10:01:00,
2013-02-03 05:11:00,33.0,31.0,29.91,North,0,0.0,0.0,92,0.00,,,0.00,,2013-02-03 10:11:00,
2013-02-03 05:21:00,33.0,31.0,29.91,North,0,0.0,0.0,92,0.00,,,0.00,,2013-02-03 10:21:00,
2013-02-03 05:31:00,33.0,31.0,29.90,North,0,0.0,0.0,93,0.00,,,0.00,,2013-02-03 10:31:00,
2013-02-03 05:42:00,33.0,31.0,29.90,North,0,0.0,0.0,93,0.00,,,0.00,,2013-02-03 10:42:00,
2013-02-03 05:52:00,33.0,31.0,29.90,North,0,0.0,0.0,93,0.00,,,0.00,,2013-02-03 10:52:00,
2013-02-03 06:02:00,33.0,31.0,29.90,North,0,0.0,0.0,93,0.00,,,0.00,,2013-02-03 11:02:00,
2013-02-03 06:11:00,33.0,31.0,29.90,North,0,0.0,0.0,93,0.00,,,0.00,,2013-02-03 11:11:00,
2013-02-03 06:32:00,34.0,32.0,29.89,North,0,0.0,0.0,92,0.00,,,0.00,,2013-02-03 11:32:00,
2013-02-03 06:42:00,34.0,32.0,29.89,North,0,0.0,0.0,92,0.00,,,0.00,,2013-02-03 11:42:00,
2013-02-03 06:52:00,34.0,32.0,29.89,North,0,0.0,0.0,92,0.00,,,0.00,,2013-02-03 11:52:00,
2013-02-03 07:02:00,34.0,32.0,29.89,North,0,0.0,0.0,92,0.00,,,0.00,,2013-02-03 12:02:00,
2013-02-03 07:12:00,34.0,32.0,29.89,North,0,0.0,0.0,92,0.00,,,0.00,,2013-02-03 12:12:00,
2013-02-03 07:22:00,34.0,32.0,29.90,North,0,0.0,0.0,92,0.00,,,0.00,,2013-02-03 12:22:00,
2013-02-03 07:32:00,35.0,33.0,29.90,North,0,0.0,0.0,92,0.00,,,0.00,,2013-02-03 12:32:00,
2013-02-03 07:42:00,35.0,33.0,29.90,North,0,0.0,0.0,92,0.00,,,0.00,,2013-02-03 12:42:00,
2013-02-03 07:53:00,35.0,33.0,29.91,North,0,0.0,0.0,92,0.00,,,0.00,,2013-02-03 12:53:00,
2013-02-03 08:03:00,35.0,33.0,29.91,North,0,0.0,0.0,93,0.00,,,0.00,,2013-02-03 13:03:00,
2013-02-03 08:11:00,35.0,33.0,29.91,North,0,0.0,0.0,93,0.00,,,0.00,,2013-02-03 13:11:00,
2013-02-03 08:22:00,35.0,33.0,29.91,North,0,0.0,0.0,93,0.00,,,0.00,,2013-02-03 13:22:00,
2013-02-03 08:32:00,35.0,33.0,29.91,North,0,0.0,0.0,93,0.00,,,0.00,,2013-02-03 13:32:00,
2013-02-03 08:42:00,35.0,33.0,29.91,North,0,0.0,0.0,93,0.00,,,0.00,,2013-02-03 13:42:00,
2013-02-03 08:52:00,35.0,33.0,29.91,North,0,0.0,0.0,93,0.00,,,0.00,,2013-02-03 13:52:00,
2013-02-03 09:02:00,37.0,35.0,29.92,North,0,0.0,0.0,92,0.00,,,0.00,,2013-02-03 14:02:00,
2013-02-03 09:12:00,37.0,35.0,29.92,North,0,0.0,0.0,92,0.00,,,0.00,,2013-02-03 14:12:00,
2013-02-03 09:22:00,40.0,36.0,29.92,North,0,0.0,0.0,85,0.00,,,0.00,,2013-02-03 14:22:00,
2013-02-03 09:32:00,41.0,34.0,29.91,North,0,0.0,5.0,77,0.00,,,0.00,,2013-02-03 14:32:00,
2013-02-03 09:42:00,41.0,34.0,29.91,North,0,0.0,5.0,77,0.00,,,0.00,,2013-02-03 14:42:00,
2013-02-03 09:52:00,41.0,34.0,29.91,North,0,0.0,5.0,77,0.00,,,0.00,,2013-02-03 14:52:00,
2013-02-03 10:03:00,43.0,32.0,29.92,North,0,0.0,6.0,65,0.00,,,0.00,,2013-02-03 15:03:00,
2013-02-03 10:12:00,43.0,32.0,29.92,North,0,0.0,6.0,65,0.00,,,0.00,,2013-02-03 15:12:00,
2013-02-03 10:22:00,43.0,32.0,29.92,North,0,0.0,6.0,65,0.00,,,0.00,,2013-02-03 15:22:00,
2013-02-03 10:33:00,44.0,31.0,29.92,North,0,0.0,8.0,59,0.00,,,0.00,,2013-02-03 15:33:00,
2013-02-03 10:42:00,44.0,31.0,29.92,North,0,0.0,8.0,59,0.00,,,0.00,,2013-02-03 15:42:00,
2013-02-03 10:52:00,44.0,31.0,29.92,North,0,0.0,8.0,59,0.00,,,0.00,,2013-02-03 15:52:00,
2013-02-03 11:03:00,45.0,27.0,29.92,NW,326,2.0,8.0,50,0.00,,,0.00,,2013-02-03 16:03:00,
2013-02-03 11:11:00,45.0,27.0,29.92,NW,326,2.0,8.0,50,0.00,,,0.00,,2013-02-03 16:11:00,
2013-02-03 11:22:00,44.0,27.0,29.91,WNW,294,2.0,8.0,50,0.00,,,0.00,,2013-02-03 16:22:00,
2013-02-03 11:33:00,45.0,27.0,29.90,SSW,207,1.0,8.0,49,0.00,,,0.00,,2013-02-03 16:33:00,
2013-02-03 11:42:00,45.0,27.0,29.90,SSW,207,1.0,8.0,49,0.00,,,0.00,,2013-02-03 16:42:00,
2013-02-03 11:52:00,45.0,27.0,29.90,West,268,1.0,8.0,48,0.00,,,0.00,,2013-02-03 16:52:00,
2013-02-03 12:03:00,46.0,26.0,29.89,NNW,342,2.0,9.0,45,0.00,,,0.00,,2013-02-03 17:03:00,
2013-02-03 12:11:00,46.0,26.0,29.89,NNW,342,2.0,9.0,45,0.00,,,0.00,,2013-02-03 17:11:00,
2013-02-03 12:22:00,46.0,26.0,29.89,NNW,342,2.0,9.0,45,0.00,,,0.00,,2013-02-03 17:22:00,
2013-02-03 12:32:00,46.0,25.0,29.88,NE,41,1.0,10.0,43,0.00,,,0.00,,2013-02-03 17:32:00,
2013-02-03 12:42:00,46.0,25.0,29.88,NE,41,1.0,10.0,43,0.00,,,0.00,,2013-02-03 17:42:00,
2013-02-03 12:52:00,46.0,25.0,29.88,NE,41,1.0,10.0,43,0.00,,,0.00,,2013-02-03 17:52:00,
2013-02-03 13:03:00,46.0,25.0,29.88,North,0,0.0,4.0,44,0.00,,,0.00,,2013-02-03 18:03:00,
2013-02-03 13:12:00,46.0,25.0,29.88,North,0,0.0,4.0,44,0.00,,,0.00,,2013-02-03 18:12:00,
2013-02-03 13:23:00,46.0,25.0,29.88,North,0,0.0,4.0,44,0.00,,,0.00,,2013-02-03 18:23:00,
2013-02-03 13:33:00,47.0,26.0,29.85,North,0,0.0,9.0,43,0.00,,,0.00,,2013-02-03 18:33:00,
2013-02-03 13:42:00,47.0,26.0,29.85,North,0,0.0,9.0,43,0.00,,,0.00,,2013-02-03 18:42:00,
2013-02-03 13:52:00,48.0,27.0,29.84,North,0,0.0,4.0,43,0.00,,,0.00,,2013-02-03 18:52:00,
2013-02-03 14:02:00,48.0,28.0,29.84,North,0,0.0,7.0,45,0.00,,,0.00,,2013-02-03 19:02:00,
2013-02-03 14:11:00,48.0,28.0,29.84,North,0,0.0,7.0,45,0.00,,,0.00,,2013-02-03 19:11:00,
2013-02-03 14:22:00,48.0,28.0,29.83,North,0,0.0,6.0,46,0.00,,,0.00,,2013-02-03 19:22:00,
2013-02-03 14:32:00,49.0,28.0,29.83,SSE,151,1.0,10.0,44,0.00,,,0.00,,2013-02-03 19:32:00,
2013-02-03 14:42:00,49.0,28.0,29.83,SSE,151,1.0,10.0,44,0.00,,,0.00,,2013-02-03 19:42:00,
2013-02-03 14:51:00,49.0,28.0,29.83,SSE,151,1.0,10.0,44,0.00,,,0.00,,2013-02-03 19:51:00,
2013-02-03 15:02:00,48.0,28.0,29.82,North,0,0.0,3.0,45,0.00,,,0.00,,2013-02-03 20:02:00,
2013-02-03 15:12:00,48.0,28.0,29.82,North,0,0.0,3.0,45,0.00,,,0.00,,2013-02-03 20:12:00,
2013-02-03 15:22:00,49.0,28.0,29.82,SE,129,2.0,9.0,44,0.00,,,0.00,,2013-02-03 20:22:00,
2013-02-03 15:33:00,48.0,29.0,29.82,North,0,0.0,7.0,47,0.00,,,0.00,,2013-02-03 20:33:00,
2013-02-03 15:42:00,48.0,29.0,29.82,North,0,0.0,7.0,47,0.00,,,0.00,,2013-02-03 20:42:00,
2013-02-03 15:52:00,48.0,29.0,29.82,North,0,0.0,7.0,47,0.00,,,0.00,,2013-02-03 20:52:00,
2013-02-03 16:03:00,47.0,29.0,29.83,North,0,0.0,0.0,49,0.00,,,0.00,,2013-02-03 21:03:00,
2013-02-03 16:11:00,47.0,29.0,29.83,North,0,0.0,0.0,49,0.00,,,0.00,,2013-02-03 21:11:00,
2013-02-03 16:22:00,48.0,29.0,29.83,North,0,0.0,6.0,47,0.00,,,0.00,,2013-02-03 21:22:00,
2013-02-03 16:33:00,48.0,29.0,29.83,SSW,213,1.0,4.0,48,0.00,,,0.00,,2013-02-03 21:33:00,
2013-02-03 16:42:00,48.0,29.0,29.83,SSW,213,1.0,4.0,48,0.00,,,0.00,,2013-02-03 21:42:00,
2013-02-03 16:52:00,48.0,29.0,29.83,North,0,0.0,4.0,48,0.00,,,0.00,,2013-02-03 21:52:00,
2013-02-03 17:01:00,47.0,29.0,29.84,North,0,0.0,4.0,50,0.00,,,0.00,,2013-02-03 22:01:00,
2013-02-03 17:11:00,47.0,29.0,29.84,North,0,0.0,4.0,50,0.00,,,0.00,,2013-02-03 22:11:00,
2013-02-03 17:21:00,47.0,30.0,29.85,North,0,0.0,9.0,52,0.00,,,0.00,,2013-02-03 22:21:00,
2013-02-03 17:32:00,47.0,30.0,29.85,North,0,0.0,9.0,52,0.00,,,0.00,,2013-02-03 22:32:00,
2013-02-03 17:42:00,47.0,30.0,29.85,North,0,0.0,9.0,52,0.00,,,0.00,,2013-02-03 22:42:00,
2013-02-03 17:52:00,47.0,30.0,29.85,North,0,0.0,9.0,52,0.00,,,0.00,,2013-02-03 22:52:00,
2013-02-03 18:01:00,45.0,32.0,29.87,North,0,0.0,6.0,59,0.00,,,0.00,,2013-02-03 23:01:00,
2013-02-03 18:12:00,45.0,32.0,29.87,North,0,0.0,6.0,59,0.00,,,0.00,,2013-02-03 23:12:00,
2013-02-03 18:22:00,44.0,32.0,29.88,North,0,0.0,0.0,62,0.00,,,0.00,,2013-02-03 23:22:00,
2013-02-03 18:32:00,44.0,33.0,29.88,North,0,0.0,0.0,64,0.00,,,0.00,,2013-02-03 23:32:00,
2013-02-03 18:42:00,44.0,33.0,29.88,North,0,0.0,0.0,64,0.00,,,0.00,,2013-02-03 23:42:00,
2013-02-03 18:52:00,43.0,32.0,29.89,North,0,0.0,0.0,66,0.00,,,0.00,,2013-02-03 23:52:00,
2013-02-03 19:02:00,40.0,31.0,29.90,North,0,0.0,0.0,71,0.00,,,0.00,,2013-02-04 00:02:00,
2013-02-03 19:11:00,40.0,31.0,29.90,North,0,0.0,0.0,71,0.00,,,0.00,,2013-02-04 00:11:00,
2013-02-03 19:22:00,40.0,28.0,29.90,North,0,0.0,4.0,63,0.00,,,0.00,,2013-02-04 00:22:00,
2013-02-03 19:32:00,40.0,28.0,29.90,North,0,0.0,4.0,63,0.00,,,0.00,,2013-02-04 00:32:00,
2013-02-03 19:42:00,40.0,28.0,29.90,North,0,0.0,4.0,63,0.00,,,0.00,,2013-02-04 00:42:00,
2013-02-03 19:52:00,39.0,29.0,29.91,North,0,0.0,0.0,67,0.00,,,0.00,,2013-02-04 00:52:00,
2013-02-03 20:01:00,38.0,29.0,29.92,North,0,0.0,0.0,70,0.00,,,0.00,,2013-02-04 01:01:00,
2013-02-03 20:11:00,37.0,28.0,29.93,North,0,0.0,0.0,71,0.00,,,0.00,,2013-02-04 01:11:00,
2013-02-03 20:21:00,37.0,28.0,29.93,North,0,0.0,0.0,71,0.00,,,0.00,,2013-02-04 01:21:00,
2013-02-03 20:32:00,36.0,28.0,29.93,North,0,0.0,0.0,73,0.00,,,0.00,,2013-02-04 01:32:00,
2013-02-03 20:42:00,36.0,28.0,29.93,North,0,0.0,0.0,73,0.00,,,0.00,,2013-02-04 01:42:00,
2013-02-03 20:52:00,36.0,27.0,29.93,North,0,0.0,0.0,70,0.00,,,0.00,,2013-02-04 01:52:00,
2013-02-03 21:02:00,36.0,27.0,29.93,North,0,0.0,0.0,69,0.00,,,0.00,,2013-02-04 02:02:00,
2013-02-03 21:11:00,36.0,27.0,29.93,North,0,0.0,0.0,69,0.00,,,0.00,,2013-02-04 02:11:00,
2013-02-03 21:21:00,36.0,27.0,29.94,North,0,0.0,0.0,70,0.00,,,0.00,,2013-02-04 02:21:00,
2013-02-03 21:32:00,36.0,27.0,29.94,North,0,0.0,0.0,70,0.00,,,0.00,,2013-02-04 02:32:00,
2013-02-03 21:41:00,36.0,27.0,29.94,North,0,0.0,0.0,70,0.00,,,0.00,,2013-02-04 02:41:00,
2013-02-03 21:52:00,35.0,26.0,29.95,North,0,0.0,0.0,70,0.00,,,0.00,,2013-02-04 02:52:00,
2013-02-03 22:02:00,34.0,26.0,29.94,North,0,0.0,0.0,71,0.00,,,0.00,,2013-02-04 03:02:00,
2013-02-03 22:11:00,34.0,26.0,29.94,North,0,0.0,0.0,73,0.00,,,0.00,,2013-02-04 03:11:00,
2013-02-03 22:21:00,34.0,26.0,29.94,North,0,0.0,0.0,73,0.00,,,0.00,,2013-02-04 03:21:00,
2013-02-03 22:32:00,34.0,26.0,29.94,North,0,0.0,5.0,73,0.00,,,0.00,,2013-02-04 03:32:00,
2013-02-03 22:42:00,34.0,26.0,29.94,North,0,0.0,5.0,73,0.00,,,0.00,,2013-02-04 03:42:00,
2013-02-03 22:51:00,34.0,26.0,29.94,North,0,0.0,5.0,73,0.00,,,0.00,,2013-02-04 03:51:00,
2013-02-03 23:01:00,35.0,26.0,29.93,NNW,336,2.0,10.0,70,0.00,,,0.00,,2013-02-04 04:01:00,
2013-02-03 23:11:00,35.0,26.0,29.93,NNW,336,2.0,10.0,70,0.00,,,0.00,,2013-02-04 04:11:00,
2013-02-03 23:22:00,37.0,25.0,29.95,NW,316,1.0,7.0,61,0.00,,,0.00,,2013-02-04 04:22:00,
2013-02-03 23:32:00,37.0,25.0,29.96,North,0,0.0,1.0,62,0.00,,,0.00,,2013-02-04 04:32:00,
2013-02-03 23:42:00,37.0,25.0,29.96,North,0,0.0,1.0,62,0.00,,,0.00,,2013-02-04 04:42:00,
2013-02-03 23:52:00,36.0,25.0,29.96,North,0,0.0,0.0,65,0.00,,,0.00,,2013-02-04 04:52:00,